timestamp,surface_pressure_avg,surface_temp_avg,battery_voltage,lat,long
2022-02-27 00:09:00+00:00,243.5232,1.5,12.09,47.84626,-54.09684
2022-02-27 00:19:00+00:00,245.3964,1.5,12.09,47.84626,-54.09684
2022-02-27 00:29:00+00:00,238.7848,1.5,12.09,47.84626,-54.09684
2022-02-27 00:39:00+00:00,232.4164,1.5,12.09,47.84626,-54.09684
2022-02-27 00:49:00+00:00,233.6947,1.5,12.09,47.84626,-54.09684
2022-02-27 00:59:00+00:00,233.2314,1.5,12.09,47.84626,-54.09684
2022-02-27 01:09:00+00:00,226.9981,1.5,12.09,47.84626,-54.09684
2022-02-27 01:19:00+00:00,225.1948,1.5,12.09,47.84626,-54.09684
2022-02-27 01:29:00+00:00,227.3265,1.5,12.09,47.84626,-54.09684
2022-02-27 01:39:00+00:00,224.7697,1.5,12.09,47.84626,-54.09684
2022-02-27 01:49:00+00:00,227.9164,1.5,12.09,47.84626,-54.09684
2022-02-27 01:59:00+00:00,232.9898,1.5,12.09,47.84626,-54.09684
2022-02-27 02:09:00+00:00,225.3631,1.5,12.09,47.84626,-54.09684
2022-02-27 02:19:01+00:00,219.4998,1.5,12.09,47.84626,-54.09684
2022-02-27 02:29:01+00:00,222.3814,1.5,12.09,47.84626,-54.09684
2022-02-27 02:39:01+00:00,220.6964,1.5,12.09,47.84626,-54.09684
2022-02-27 02:49:01+00:00,217.1347,1.48,12.09,47.84626,-54.09684
2022-02-27 02:59:01+00:00,216.9265,1.5,12.09,47.84626,-54.09684
2022-02-27 03:09:01+00:00,217.4631,1.5,12.09,47.84626,-54.09684
2022-02-27 03:19:01+00:00,213.4748,1.5,12.09,47.84626,-54.09684
2022-02-27 03:29:01+00:00,218.9965,1.51,12.09,47.84626,-54.09684
2022-02-27 03:39:01+00:00,225.7998,1.52,12.09,47.84626,-54.09684
2022-02-27 03:49:01+00:00,222.7614,1.55,12.09,47.84626,-54.09684
2022-02-27 03:59:01+00:00,216.4331,1.5,12.09,47.84626,-54.09684
2022-02-27 04:09:01+00:00,220.5998,1.5,12.09,47.84626,-54.09684
2022-02-27 04:19:01+00:00,226.7598,1.5,12.09,47.84626,-54.09684
2022-02-27 04:29:01+00:00,222.6364,1.52,12.09,47.84626,-54.09684
2022-02-27 04:39:01+00:00,216.6431,1.54,12.09,47.84626,-54.09684
2022-02-27 04:49:01+00:00,228.493,1.52,12.09,47.84626,-54.09684
2022-02-27 04:59:01+00:00,245.6281,1.51,12.09,47.84626,-54.09684
2022-02-27 05:09:01+00:00,246.4431,1.5,12.09,47.84626,-54.09684
2022-02-27 05:19:01+00:00,248.6948,1.5,12.09,47.84626,-54.09684
2022-02-27 05:29:01+00:00,258.2397,1.5,12.09,47.84626,-54.09684
2022-02-27 05:39:01+00:00,265.6314,1.4,12.09,47.84626,-54.09684
2022-02-27 05:49:01+00:00,268.0214,1.3,12.09,47.84626,-54.09684
2022-02-27 05:59:01+00:00,273.2481,1.28,12.09,47.84626,-54.09684
2022-02-27 06:09:01+00:00,283.0997,1.19,12.09,47.84626,-54.09684
2022-02-27 06:19:00+00:00,293.1981,1.09,12.09,47.84626,-54.09684
2022-02-27 06:29:00+00:00,303.163,0.9,12.09,47.84626,-54.09684
2022-02-27 06:39:00+00:00,307.548,0.8,12.09,47.84626,-54.09684
2022-02-27 06:49:00+00:00,315.0897,0.8,12.09,47.84626,-54.09684
2022-02-27 06:59:00+00:00,328.9813,0.9,12.09,47.84626,-54.09684
2022-02-27 07:09:00+00:00,339.6229,0.9,12.09,47.84626,-54.09684
2022-02-27 07:19:00+00:00,338.048,0.8,12.09,47.84626,-54.09684
2022-02-27 07:29:00+00:00,342.9047,0.78,12.09,47.84626,-54.09684
2022-02-27 07:39:00+00:00,352.8662,0.8,12.09,47.84626,-54.09684
2022-02-27 07:49:00+00:00,352.5896,0.79,12.09,47.84626,-54.09684
2022-02-27 07:59:00+00:00,350.1379,0.9,12.09,47.84626,-54.09684
2022-02-27 08:09:00+00:00,364.3047,0.9,12.09,47.84626,-54.09684
2022-02-27 08:19:01+00:00,365.8596,0.9,12.09,47.84626,-54.09684
2022-02-27 08:29:01+00:00,358.8962,0.81,12.09,47.84626,-54.09684
2022-02-27 08:39:01+00:00,360.0179,0.83,12.09,47.84626,-54.09684
2022-02-27 08:49:01+00:00,365.0964,1.03,12.09,47.84626,-54.09684
2022-02-27 08:59:01+00:00,356.3413,1.3,12.09,47.84626,-54.09684
2022-02-27 09:09:01+00:00,348.0297,1.37,12.09,47.84626,-54.09684
2022-02-27 09:19:00+00:00,352.7012,1.38,12.09,47.84626,-54.09684
2022-02-27 09:29:00+00:00,349.468,1.4,12.09,47.84626,-54.09684
2022-02-27 09:39:00+00:00,338.7912,1.43,12.09,47.84626,-54.09684
2022-02-27 09:49:00+00:00,337.55800000000005,1.48,12.09,47.84626,-54.09684
2022-02-27 09:59:00+00:00,334.7479,1.48,12.09,47.84626,-54.09684
2022-02-27 10:09:00+00:00,328.6063,1.45,12.09,47.84626,-54.09684
2022-02-27 10:19:00+00:00,322.7613,1.4,12.09,47.84626,-54.09684
2022-02-27 10:29:00+00:00,328.548,1.4,12.09,47.84626,-54.09684
2022-02-27 10:39:00+00:00,328.213,1.4,12.09,47.84626,-54.09684
2022-02-27 10:49:00+00:00,323.7396,1.4,12.09,47.84626,-54.09684
2022-02-27 10:59:00+00:00,321.1414,1.4,12.09,47.84626,-54.09684
2022-02-27 11:09:00+00:00,319.3913,1.42,12.09,47.84626,-54.09684
2022-02-27 11:19:00+00:00,315.4396,1.44,12.09,47.84626,-54.09684
2022-02-27 11:29:00+00:00,309.3113,1.46,12.09,47.84626,-54.09684
2022-02-27 11:39:00+00:00,303.4915,1.47,12.09,47.84626,-54.09684
2022-02-27 11:49:00+00:00,295.0731,1.49,12.09,47.84626,-54.09684
2022-02-27 11:59:00+00:00,287.0847,1.49,12.09,47.84626,-54.09684
2022-02-27 12:09:00+00:00,280.2564,1.5,12.09,47.84626,-54.09684
2022-02-27 12:19:01+00:00,275.8231,1.5,12.25,47.84626,-54.09684
2022-02-27 12:29:01+00:00,273.7897,1.5,12.25,47.84626,-54.09684
2022-02-27 12:39:01+00:00,270.0214,1.5,12.25,47.84626,-54.09684
2022-02-27 12:49:01+00:00,265.558,1.5,12.25,47.84626,-54.09684
2022-02-27 12:59:01+00:00,263.3631,1.4,12.25,47.84626,-54.09684
2022-02-27 13:09:01+00:00,258.6697,1.4,12.25,47.84626,-54.09684
2022-02-27 13:19:00+00:00,252.1064,1.3,12.09,47.84626,-54.09684
2022-02-27 13:29:00+00:00,249.4064,1.3,12.09,47.84626,-54.09684
2022-02-27 13:39:00+00:00,245.7331,1.2,12.09,47.84626,-54.09684
2022-02-27 13:49:00+00:00,239.8831,1.2,12.09,47.84626,-54.09684
2022-02-27 13:59:00+00:00,235.5997,1.2,12.09,47.84626,-54.09684
2022-02-27 14:09:00+00:00,238.6548,1.2,12.09,47.84626,-54.09684
2022-02-27 14:19:00+00:00,240.3781,1.2,12.09,47.84626,-54.09684
2022-02-27 14:29:00+00:00,235.4214,1.13,12.09,47.84626,-54.09684
2022-02-27 14:39:00+00:00,233.7031,1.1,12.09,47.84626,-54.09684
2022-02-27 14:49:00+00:00,236.1664,1.1,12.09,47.84626,-54.09684
2022-02-27 14:59:00+00:00,233.6798,1.13,12.09,47.84626,-54.09684
2022-02-27 15:09:00+00:00,228.5914,1.17,12.09,47.84626,-54.09684
2022-02-27 15:19:00+00:00,228.3797,1.2,12.09,47.84626,-54.09684
2022-02-27 15:29:00+00:00,228.623,1.2,12.09,47.84626,-54.09684
2022-02-27 15:39:00+00:00,226.1598,1.25,12.09,47.84626,-54.09684
2022-02-27 15:49:00+00:00,226.8997,1.23,12.09,47.84626,-54.09684
2022-02-27 15:59:00+00:00,225.7198,1.3,12.09,47.84626,-54.09684
2022-02-27 16:09:00+00:00,219.4215,1.36,12.09,47.84626,-54.09684
2022-02-27 16:19:00+00:00,216.7315,1.4,12.09,47.84626,-54.09684
2022-02-27 16:29:00+00:00,223.6315,1.4,12.09,47.84626,-54.09684
2022-02-27 16:39:00+00:00,225.6265,1.42,12.09,47.84626,-54.09684
2022-02-27 16:49:00+00:00,225.2231,1.47,12.09,47.84626,-54.09684
2022-02-27 16:59:00+00:00,227.0098,1.48,12.09,47.84626,-54.09684
2022-02-27 17:09:00+00:00,230.433,1.49,12.09,47.84626,-54.09684
2022-02-27 17:19:00+00:00,230.8548,1.49,12.09,47.84626,-54.09684
2022-02-27 17:29:00+00:00,233.8348,1.5,12.09,47.84626,-54.09684
2022-02-27 17:39:00+00:00,238.7314,1.5,12.09,47.84626,-54.09684
2022-02-27 17:49:00+00:00,240.3198,1.5,12.09,47.84626,-54.09684
2022-02-27 17:59:00+00:00,243.8931,1.59,12.09,47.84626,-54.09684
2022-02-27 18:09:00+00:00,251.6414,1.59,12.09,47.84626,-54.09684
2022-02-27 18:19:01+00:00,257.063,1.6,12.09,47.84626,-54.09684
2022-02-27 18:29:01+00:00,258.7114,1.6,12.09,47.84626,-54.09684
2022-02-27 18:39:01+00:00,265.2347,1.6,12.09,47.84626,-54.09684
2022-02-27 18:49:01+00:00,272.7481,1.6,12.09,47.84626,-54.09684
2022-02-27 18:59:01+00:00,277.0048,1.59,12.09,47.84626,-54.09684
2022-02-27 19:09:01+00:00,279.4231,1.6,12.09,47.84626,-54.09684
2022-02-27 19:19:01+00:00,288.0047,1.6,12.09,47.84626,-54.09684
2022-02-27 19:29:01+00:00,295.473,1.6,12.09,47.84626,-54.09684
2022-02-27 19:39:01+00:00,297.1931,1.59,12.09,47.84626,-54.09684
2022-02-27 19:49:01+00:00,299.808,1.54,12.09,47.84626,-54.09684
2022-02-27 19:59:01+00:00,306.3364,1.5,12.09,47.84626,-54.09684
2022-02-27 20:09:01+00:00,310.1513,1.5,12.09,47.84626,-54.09684
2022-02-27 20:19:00+00:00,310.0314,1.5,12.17,47.84626,-54.09684
2022-02-27 20:29:00+00:00,315.7913,1.5,12.17,47.84626,-54.09684
2022-02-27 20:39:00+00:00,324.2047,1.5,12.17,47.84626,-54.09684
2022-02-27 20:49:00+00:00,327.153,1.5,12.17,47.84626,-54.09684
2022-02-27 20:59:00+00:00,328.7513,1.45,12.17,47.84626,-54.09684
2022-02-27 21:09:00+00:00,334.68300000000005,1.45,12.17,47.84626,-54.09684
2022-02-27 21:19:00+00:00,337.55300000000005,1.4,12.17,47.84626,-54.09684
2022-02-27 21:29:00+00:00,335.1964,1.4,12.17,47.84626,-54.09684
2022-02-27 21:39:00+00:00,333.2630000000001,1.4,12.17,47.84626,-54.09684
2022-02-27 21:49:00+00:00,333.4446,1.4,12.17,47.84626,-54.09684
2022-02-27 21:59:00+00:00,329.4614,1.38,12.17,47.84626,-54.09684
2022-02-27 22:09:00+00:00,330.9714,1.39,12.17,47.84626,-54.09684
2022-02-27 22:19:00+00:00,330.848,1.4,12.17,47.84626,-54.09684
2022-02-27 22:29:00+00:00,324.8746,1.39,12.17,47.84626,-54.09684
2022-02-27 22:39:00+00:00,314.8463,1.37,12.17,47.84626,-54.09684
2022-02-27 22:49:00+00:00,313.4163,1.32,12.17,47.84626,-54.09684
2022-02-27 22:59:00+00:00,315.6213,1.3,12.17,47.84626,-54.09684
2022-02-27 23:09:00+00:00,311.508,1.2,12.17,47.84626,-54.09684
2022-02-27 23:19:01+00:00,303.143,1.19,12.17,47.84626,-54.09684
2022-02-27 23:29:01+00:00,302.1364,1.14,12.17,47.84626,-54.09684
2022-02-27 23:39:01+00:00,300.3347,1.1,12.17,47.84626,-54.09684
2022-02-27 23:49:01+00:00,294.5013,1.06,12.17,47.84626,-54.09684
2022-02-27 23:59:01+00:00,286.5146,1.04,12.17,47.84626,-54.09684
